Weather History for KIKK - September, 2013

Change the Weather History Date:

Saturday, September 28, 2013

  Actual Average Record
Temperature  
Mean Temperature 67 °F -  
Max Temperature 85 °F 73 °F 86 °F (1987)
Min Temperature 50 °F 48 °F 35 °F (1989)
Cooling Degree Days 2    
Growing Degree Days 17 (Base 50)    
Moisture  
Dew Point 53 °F    
Average Humidity 60    
Maximum Humidity 89    
Minimum Humidity 37    
Precipitation  
Precipitation 0.00 in - - ()
Sea Level Pressure  
Sea Level Pressure 30.03 in    
Wind  
Wind Speed 8 mph (SSE)    
Max Wind Speed 22 mph    
Max Gust Speed 36 mph    
Visibility 10 miles    
Events      
Averages and records for this station are not official NWS values.
T = Trace of Precipitation, MM = Missing Value Source: NWS Daily Summary

Daily Weather History Graph

Daily Weather History Graph

Search for Another Location

Airport or City:

Trip Planner

Search our weather history database for the weather conditions in past years. The results will help you decide how hot, cold, wet, or windy it might be!

Date:

Astronomy

Sep. 28, 2013 Rise Set
Actual Time 6:45 AM CDT 6:37 PM CDT
Civil Twilight 6:17 AM CDT 7:05 PM CDT
Nautical Twilight 5:45 AM CDT 7:37 PM CDT
Astronomical Twilight 5:13 AM CDT 8:09 PM CDT
Moon 12:29 AM CDT (9/28) 2:59 PM CDT (9/28)
Length of Visible Light 12h 47m
Length of Day
11h 52m
Waning Crescent, 36% of the Moon is Illuminated
Sep 28
Waning Crescent
Oct 4
New
Oct 11
First Quarter
Oct 18
Full
Oct 26
Last Quarter

Hourly Weather History & Observations

Time (CDT) Temp. Heat Index Dew Point Humidity Pressure Visibility Wind Dir Wind Speed Gust Speed Precip Events Conditions
12:15 AM 55.0 °F - 45.9 °F 71% 30.10 in 10.0 mi ESE 3.5 mph - N/A   Clear
12:35 AM 55.9 °F - 46.0 °F 69% 30.09 in 10.0 mi ESE 4.6 mph - N/A   Clear
12:55 AM 53.4 °F - 46.0 °F 76% 30.09 in 10.0 mi Calm Calm - N/A   Clear
1:15 AM 54.1 °F - 45.9 °F 74% 30.09 in 10.0 mi Calm Calm - N/A   Clear
1:35 AM 54.0 °F - 45.9 °F 74% 30.09 in 10.0 mi Calm Calm - N/A   Clear
1:55 AM 53.6 °F - 45.3 °F 74% 30.09 in 10.0 mi ESE 3.5 mph - N/A   Clear
2:15 AM 51.4 °F - 45.0 °F 79% 30.09 in 10.0 mi ESE 4.6 mph - N/A   Clear
2:35 AM 54.0 °F - 45.5 °F 73% 30.09 in 10.0 mi East 4.6 mph - N/A   Clear
2:55 AM 54.1 °F - 45.5 °F 73% 30.08 in 10.0 mi ESE 4.6 mph - N/A   Clear
3:15 AM 53.1 °F - 45.7 °F 76% 30.08 in 10.0 mi ESE 4.6 mph - N/A   Clear
3:35 AM 53.2 °F - 46.4 °F 78% 30.09 in 10.0 mi ESE 5.8 mph - N/A   Clear
3:55 AM 53.6 °F - 46.9 °F 78% 30.09 in 10.0 mi ESE 5.8 mph - N/A   Clear
4:15 AM 53.2 °F - 47.3 °F 80% 30.09 in 10.0 mi ESE 8.1 mph - N/A   Clear
4:35 AM 52.7 °F - 47.7 °F 83% 30.09 in 10.0 mi ESE 8.1 mph - N/A   Clear
4:55 AM 52.7 °F - 47.8 °F 84% 30.09 in 10.0 mi ESE 6.9 mph - N/A   Clear
5:15 AM 52.2 °F - 48.0 °F 86% 30.09 in 10.0 mi ESE 6.9 mph - N/A   Clear
5:35 AM 52.0 °F - 48.0 °F 86% 30.09 in 10.0 mi ESE 6.9 mph - N/A   Clear
5:55 AM 51.4 °F - 47.8 °F 87% 30.09 in 10.0 mi ESE 6.9 mph - N/A   Clear
6:15 AM 50.9 °F - 47.7 °F 89% 30.10 in 10.0 mi ESE 6.9 mph - N/A   Clear
6:35 AM 51.4 °F - 47.8 °F 87% 30.10 in 10.0 mi ESE 6.9 mph - N/A   Clear
6:55 AM 51.3 °F - 47.8 °F 88% 30.10 in 10.0 mi ESE 8.1 mph - N/A   Clear
7:15 AM 51.6 °F - 48.2 °F 88% 30.11 in 10.0 mi ESE 5.8 mph - N/A   Clear
7:35 AM 52.7 °F - 48.6 °F 86% 30.11 in 10.0 mi ESE 5.8 mph - N/A   Clear
7:55 AM 54.3 °F - 49.3 °F 83% 30.12 in 10.0 mi ESE 5.8 mph - N/A   Clear
8:15 AM 56.8 °F - 50.7 °F 80% 30.11 in 10.0 mi SE 5.8 mph - N/A   Clear
8:35 AM 61.9 °F - 53.1 °F 73% 30.12 in 10.0 mi SE 8.1 mph - N/A   Clear
8:55 AM 64.9 °F - 54.1 °F 68% 30.11 in 10.0 mi SSE 8.1 mph - N/A   Clear
9:15 AM 67.3 °F - 55.2 °F 65% 30.10 in 10.0 mi SSE 10.4 mph - N/A   Clear
9:35 AM 69.1 °F - 56.1 °F 63% 30.10 in 10.0 mi SSE 10.4 mph - N/A   Clear
9:55 AM 71.8 °F - 57.2 °F 60% 30.10 in 10.0 mi SSE 10.4 mph - N/A   Clear
10:15 AM 73.8 °F - 57.4 °F 56% 30.09 in 10.0 mi South 9.2 mph - N/A   Clear
10:35 AM 76.3 °F - 58.1 °F 53% 30.08 in 10.0 mi South 11.5 mph 17.3 mph N/A   Clear
10:55 AM 77.4 °F - 59.0 °F 53% 30.08 in 10.0 mi South 10.4 mph - N/A   Scattered Clouds
11:15 AM 78.3 °F - 59.7 °F 53% 30.07 in 10.0 mi South 13.8 mph - N/A   Scattered Clouds
11:35 AM 79.0 °F - 59.2 °F 51% 30.06 in 10.0 mi South 13.8 mph 17.3 mph N/A   Clear
11:55 AM 79.9 °F - 59.0 °F 49% 30.05 in 10.0 mi South 13.8 mph 19.6 mph N/A   Clear
12:15 PM 82.2 °F 82.0 °F 57.9 °F 43% 30.04 in 10.0 mi South 13.8 mph 23.0 mph N/A   Scattered Clouds
12:35 PM 83.1 °F 82.6 °F 56.8 °F 41% 30.03 in 10.0 mi South 16.1 mph 20.7 mph N/A   Scattered Clouds
12:55 PM 83.1 °F 82.6 °F 56.8 °F 41% 30.02 in 10.0 mi South 16.1 mph 24.2 mph N/A   Clear
1:15 PM 83.7 °F 82.8 °F 56.5 °F 39% 30.01 in 10.0 mi South 16.1 mph 26.5 mph N/A   Clear
1:35 PM 83.5 °F 82.6 °F 56.3 °F 39% 29.99 in 10.0 mi SSW 18.4 mph 26.5 mph N/A   Scattered Clouds
1:55 PM 83.3 °F 82.6 °F 56.5 °F 40% 29.99 in 10.0 mi South 15.0 mph 20.7 mph N/A   Scattered Clouds
2:15 PM 84.4 °F 83.4 °F 55.9 °F 38% 29.99 in 10.0 mi SSW 21.9 mph 27.6 mph N/A   Mostly Cloudy
2:35 PM 84.9 °F 83.7 °F 55.6 °F 37% 29.99 in 10.0 mi South 19.6 mph 25.3 mph N/A   Scattered Clouds
2:55 PM 84.7 °F 83.6 °F 55.6 °F 37% 29.99 in 10.0 mi South 18.4 mph 25.3 mph N/A   Scattered Clouds
3:15 PM 83.8 °F 82.7 °F 54.9 °F 37% 29.98 in 10.0 mi South 19.6 mph 26.5 mph N/A   Scattered Clouds
3:35 PM 83.5 °F 82.4 °F 54.9 °F 37% 29.98 in 10.0 mi SSW 17.3 mph 35.7 mph N/A   Scattered Clouds
3:55 PM 83.1 °F 82.2 °F 55.4 °F 38% 29.97 in 10.0 mi SSW 18.4 mph 29.9 mph N/A   Clear
4:15 PM 82.2 °F 81.4 °F 54.3 °F 38% 29.97 in 10.0 mi SSW 16.1 mph 28.8 mph N/A   Clear
4:35 PM 81.0 °F 80.7 °F 55.0 °F 41% 29.97 in 10.0 mi SSW 18.4 mph 27.6 mph N/A   Scattered Clouds
4:55 PM 81.5 °F 81.0 °F 55.0 °F 40% 29.96 in 10.0 mi SSW 10.4 mph 21.9 mph N/A   Clear
5:15 PM 81.1 °F 80.8 °F 54.9 °F 40% 29.96 in 10.0 mi SSW 17.3 mph 24.2 mph N/A   Clear
5:35 PM 79.7 °F - 54.7 °F 42% 29.95 in 10.0 mi South 10.4 mph - N/A   Clear
5:55 PM 79.3 °F - 54.9 °F 43% 29.95 in 10.0 mi South 12.7 mph - N/A   Clear
6:15 PM 78.8 °F - 55.0 °F 44% 29.95 in 10.0 mi South 11.5 mph - N/A   Clear
6:35 PM 77.9 °F - 55.4 °F 46% 29.94 in 10.0 mi South 10.4 mph - N/A   Clear
6:55 PM 77.2 °F - 55.8 °F 47% 29.94 in 10.0 mi South 10.4 mph - N/A   Clear
7:15 PM 76.5 °F - 55.9 °F 49% 29.95 in 10.0 mi South 10.4 mph - N/A   Scattered Clouds
7:35 PM 75.6 °F - 56.3 °F 51% 29.95 in 10.0 mi South 8.1 mph - N/A   Mostly Cloudy
7:55 PM 75.4 °F - 56.3 °F 51% 29.95 in 10.0 mi South 8.1 mph - N/A   Overcast
8:15 PM 75.2 °F - 56.3 °F 52% 29.95 in 10.0 mi South 9.2 mph - N/A   Overcast
8:35 PM 75.2 °F - 55.9 °F 51% 29.96 in 10.0 mi South 9.2 mph - N/A   Overcast
8:55 PM 75.2 °F - 55.8 °F 51% 29.96 in 10.0 mi South 9.2 mph - N/A   Overcast
9:15 PM 74.8 °F - 55.4 °F 51% 29.96 in 10.0 mi South 9.2 mph - N/A   Overcast
9:35 PM 74.3 °F - 55.4 °F 52% 29.96 in 10.0 mi South 10.4 mph - N/A   Overcast
9:55 PM 73.8 °F - 55.4 °F 53% 29.96 in 10.0 mi South 10.4 mph - N/A   Overcast
10:15 PM 73.4 °F - 55.4 °F 53% 29.96 in 10.0 mi South 9.2 mph - N/A   Overcast
10:35 PM 72.9 °F - 55.6 °F 55% 29.96 in 10.0 mi South 11.5 mph - N/A   Overcast
10:55 PM 72.5 °F - 55.8 °F 56% 29.96 in 10.0 mi South 8.1 mph - N/A   Overcast
11:15 PM 72.0 °F - 55.8 °F 57% 29.96 in 10.0 mi South 6.9 mph - N/A   Overcast
11:35 PM 71.8 °F - 56.3 °F 58% 29.96 in 10.0 mi South 9.2 mph - N/A   Overcast
11:55 PM 72.1 °F - 56.3 °F 57% 29.95 in 10.0 mi South 10.4 mph - N/A   Overcast